Content
SEND FEEDBACK

Daily
Averages
Monthly
Summary
United States of America

GREENFIELD, MASSACHUSETTS


Home > North America > United States > Massachusetts
Elevation: 58 meters     Latitude: 42 37N     Longitude: 072 33W

WEATHER
 
SELECT A DAY
Number of Records: 216,889;   Date Range: 7/1/96 - 11/27/14
 
SHARE

PRINT THIS DATA

[ ← Previous Day ]
WEATHER ALMANAC - 30 JULY, 2014
[ Next Day → ]
[ °F ]   °C
Weather ElementAverageHighLow
Temperature18.1 °C23.9 °C (11:52 am)13.3 °C (1:52 am)
Dewpoint12.2 °C14.4 °C (10:52 pm)8.3 °C (2:52 pm)
Humidity73.2 %97 % (12:52 am)38 % (12:52 pm)
Barometer1016.3 hPa1017.6 hPa (7:52 am)1014.9 hPa (12:52 am)
Wind Speed3.1 km/h11.1 km/h (8:52 am)
Weather ElementAverage
Visibility16.1 km
Wind DirectionENE (66.7 °)

Weather ElementTotal
Precipitation---
Cooling Degree Days0.3 (Base 18.3)
Growing Degree Days8.6 (Base 10)
Averaged from 21 records on 30 July, 2014
WEATHER CONDITIONS BREAKOUT
WIND DIRECTION BREAKOUT
WEATHER BY HOUR - 30 JULY, 2014
[ °F ]   °C
Local TimeTemperatureDewpointHumidityBarometerVisibilityWind DirectionWind SpeedGust SpeedPrecipitationEventsConditions
12:52 AM13.3 °C12.2 °C93 %1014.9 hPa16.1 kmCalmScattered Clouds
1:31 AM13.3 °C12.8 °C97 %1015.2 hPa16.1 kmCalmOvercast
2:52 AM13.9 °C12.8 °C93 %1015.2 hPa16.1 kmCalmOvercast
3:52 AM13.9 °C12.8 °C93 %1014.9 hPa16.1 kmCalmOvercast
4:52 AM13.3 °C12.8 °C97 %1015.6 hPa16.1 kmCalmOvercast
5:52 AM13.9 °C12.8 °C93 %1015.9 hPa16.1 kmCalmOvercast
6:52 AM14.4 °C13.3 °C93 %1016.3 hPa16.1 kmCalmOvercast
7:52 AM15 °C13.3 °C90 %1016.9 hPa16.1 kmCalmOvercast
8:52 AM16.7 °C13.9 °C84 %1016.9 hPa16.1 kmCalmOvercast
9:52 AM18.9 °C13.9 °C73 %1016.9 hPa16.1 kmCalmMostly Cloudy
10:52 AM21.7 °C13.3 °C59 %1016.6 hPa16.1 kmVariable5.6 km/hOvercast
11:52 AM22.8 °C12.2 °C51 %1016.3 hPa16.1 kmSSE (160°)5.6 km/hScattered Clouds
1:52 PM23.9 °C10 °C41 %1015.6 hPa16.1 kmVariable5.6 km/hPartly Cloudy
2:52 PM22.8 °C11.1 °C48 %1015.6 hPa16.1 kmWNW (290°)9.3 km/hOvercast
3:52 PM23.3 °C8.3 °C38 %1015.6 hPa16.1 kmWSW (250°)9.3 km/hPartly Cloudy
4:52 PM23.9 °C9.4 °C40 %1015.6 hPa16.1 kmWSW (240°)11.1 km/hClear
5:52 PM23.9 °C10 °C41 %1015.9 hPa16.1 kmSW (230°)11.1 km/hPartly Cloudy
6:52 PM23.3 °C10.6 °C45 %1016.3 hPa16.1 kmSW (230°)7.4 km/hClear
8:52 PM16.7 °C14.4 °C86 %1016.9 hPa16.1 kmCalmClear
9:52 PM15.6 °C13.9 °C90 %1017.3 hPa16.1 kmCalmClear
10:52 PM14.4 °C13.3 °C93 %1017.6 hPa16.1 kmCalmClear
Hourly data recorded from KORE, located 0 kilometers away from Greenfield, Massachusetts







STORIES FROM OUR PARTNERS